Sokodé Airport

Jump to: basic info | weather | comments

Related pages: nearby airports | nearby navaids | notams | map

Basic information (top)

Codes: DXSK
Location: lon 8.983000, lat 1.150000, elev 1,214 ft / 370 m msl
Status: small_airport
Scheduled airline service: no
Links: Wikipedia Mobile

Weather (top)

Current conditions (rec'd 2015/03/02 18:00Z):

DXSK 021800Z 00000KT 3000 HZ NSC 35/M03 Q////

Airport forecast for Niamtougou International Airport 47nm (87km) N (rec'd 2015/03/02 18:39Z):

TAF TAF DXNG 021728Z 0218/0318 05005G15KT 8000 NSC

Latest comments (top)

No comments yet for Sokodé Airport

More... (top)

See also NOTAMs and nearby airports and navaids, or visit the Sokodé Airport page at the main OurAirports website..